ONEWEB-0017 (45132 NORAD) Tracking and Keplerian Element Data

This shows tracking and keplerian element data for the satellite.

Feedback or suggestion? Click here.




ElementValue
Catalog45132
NameONEWEB-0017
Epoch Orbit174
Epoch Day186.91667824
Epoch Year2020
RAAN116.4149
Inclination87.4403
Eccentricity0.0023707
Argument of Perigee132.1552
Mean Anonmoly167.1014
Mean Motion14.66602986
Decay Rate-0.00056912
L11 45132U 20008B 20186.91667824 -.00056912 00000-0 -10310-1 0 9996
L22 45132 87.4403 116.4149 0023707 132.1552 167.1014 14.66602986 1747

Live tracking and technical data element details for ONEWEB-0017 (NORAD 45132). ONEWEB-0017 can be tracked NOW for your location showing map with azimuth and elevation plus other details from your city location.

Track the satellite on the map from your city or location and see movement details for azimuth, elevation, latitude, longitude, range, height, and movement on the map or in text.







IsCatalogInMostPopularTable: catalog: 45132, numindb: 29
Update: records affected: 1



GetName: 45132 ONEWEB-0017

Hit Count: updated at: Mon, 06 Jul 2020 05:07:04 GMT